| time (UTC) | temp F | wind direction | speed knots | gust knots | rain 1hr in | rain 24hr in | rain mn in | humidity % | barometer mb |
| 20260506160037 | 47 | 210 | 1.7 | 4.3 | 0.00 | 0.00 | 0.00 | 81 | 1017.8 |
| 20260506154527 | 46 | 225 | 0.9 | 4.3 | 0.00 | 0.00 | 0.00 | 82 | 1017.9 |
| 20260506153025 | 46 | 281 | 0.9 | 4.3 | 0.00 | 0.00 | 0.00 | 82 | 1018.0 |
| 20260506151524 | 46 | 276 | 0.9 | 4.3 | 0.00 | 0.00 | 0.00 | 83 | 1018.2 |
| 20260506150024 | 47 | 241 | 0.9 | 5.2 | 0.00 | 0.00 | 0.00 | 81 | 1018.0 |
| 20260506144519 | 47 | 221 | 0.9 | 4.3 | 0.00 | 0.00 | 0.00 | 78 | 1018.3 |
| 20260506143015 | 48 | 211 | 0.0 | 1.7 | 0.00 | 0.00 | 0.00 | 73 | 1018.2 |
| 20260506141612 | 49 | 223 | 0.0 | 0.9 | 0.00 | 0.00 | 0.00 | 76 | 1017.7 |
| 20260506140010 | 50 | 246 | 0.0 | 1.7 | 0.00 | 0.00 | 0.00 | 74 | 1017.9 |
| 20260506134509 | 50 | 238 | 0.0 | 0.9 | 0.00 | 0.00 | 0.00 | 74 | 1017.5 |
| 20260506133009 | 50 | 232 | 0.0 | 0.9 | 0.00 | 0.00 | 0.00 | 73 | 1017.4 |
| 20260506131513 | 50 | 253 | 0.0 | 1.7 | 0.00 | 0.00 | 0.00 | 76 | 1017.4 |
| 20260506130006 | 51 | 269 | 0.0 | 0.9 | 0.00 | 0.00 | 0.00 | 74 | 1017.3 |
| 20260506124506 | 51 | 227 | 0.0 | 2.6 | 0.00 | 0.00 | 0.00 | 77 | 1017.0 |
| 20260506123005 | 51 | 256 | 0.0 | 2.6 | 0.00 | 0.00 | 0.00 | 81 | 1017.0 |
| 20260506121506 | 50 | 228 | 1.7 | 10.4 | 0.00 | 0.00 | 0.00 | 87 | 1016.9 |
| 20260506120008 | 51 | 254 | 1.7 | 7.0 | 0.00 | 0.00 | 0.00 | 90 | 1016.8 |
| 20260506114503 | 51 | 262 | 1.7 | 7.8 | 0.00 | 0.00 | 0.00 | 91 | 1016.9 |
| 20260506113003 | 51 | 236 | 2.6 | 6.1 | 0.00 | 0.00 | 0.00 | 91 | 1016.7 |
| 20260506111502 | 51 | 252 | 1.7 | 6.1 | 0.00 | 0.00 | 0.00 | 91 | 1016.7 |
| 20260506110001 | 51 | 230 | 3.5 | 11.3 | 0.00 | 0.00 | 0.00 | 91 | 1016.7 |
| 20260506104559 | 51 | 218 | 4.3 | 12.2 | 0.00 | 0.00 | 0.00 | 90 | 1016.7 |
| 20260506103056 | 52 | 217 | 3.5 | 14.8 | 0.00 | 0.00 | 0.00 | 90 | 1016.3 |
| 20260506101553 | 53 | 237 | 3.5 | 13.9 | 0.00 | 0.00 | 0.00 | 90 | 1016.0 |
| 20260506100051 | 54 | 267 | 1.7 | 10.4 | 0.00 | 0.00 | 0.00 | 90 | 1015.5 |
| 20260506094604 | 55 | 213 | 3.5 | 10.4 | 0.00 | 0.00 | 0.00 | 90 | 1015.4 |
| 20260506093047 | 55 | 327 | 2.6 | 8.7 | 0.00 | 0.00 | 0.00 | 90 | 1014.6 |
| 20260506091548 | 55 | 19 | 3.5 | 9.6 | 0.00 | 0.00 | 0.00 | 89 | 1014.4 |
| 20260506090045 | 56 | 339 | 3.5 | 7.8 | 0.00 | 0.00 | 0.00 | 89 | 1014.6 |
| 20260506084544 | 56 | 263 | 2.6 | 7.0 | 0.00 | 0.00 | 0.00 | 87 | 1014.5 |
| 20260506083041 | 56 | 282 | 1.7 | 8.7 | 0.00 | 0.00 | 0.00 | 85 | 1014.7 |
| 20260506081539 | 57 | 265 | 3.5 | 14.8 | 0.00 | 0.00 | 0.00 | 81 | 1015.0 |
| 20260506073039 | 61 | 355 | 3.5 | 14.8 | 0.00 | 0.00 | 0.00 | 65 | 1013.4 |
| 20260506071541 | 62 | 313 | 7.0 | 14.8 | 0.00 | 0.00 | 0.00 | 63 | 1013.3 |
| 20260506061534 | 63 | 271 | 3.5 | 11.3 | 0.00 | 0.00 | 0.00 | 60 | 1014.1 |
| 20260506044524 | 64 | 287 | 3.5 | 9.6 | 0.00 | 0.00 | 0.00 | 59 | 1015.7 |
| 20260506043022 | 64 | 360 | 6.1 | 14.8 | 0.00 | 0.00 | 0.00 | 59 | 1015.8 |
| 20260506041521 | 64 | 339 | 4.3 | 12.2 | 0.00 | 0.00 | 0.00 | 59 | 1016.1 |
| 20260506040019 | 65 | 288 | 5.2 | 14.8 | 0.00 | 0.00 | 0.00 | 58 | 1016.4 |
| 20260506034518 | 65 | 355 | 5.2 | 11.3 | 0.00 | 0.00 | 0.00 | 58 | 1016.7 |
| 20260506033016 | 65 | 355 | 3.5 | 11.3 | 0.00 | 0.00 | 0.00 | 58 | 1016.7 |
| 20260506031513 | 64 | 344 | 4.3 | 13.0 | 0.00 | 0.00 | 0.00 | 59 | 1017.1 |
| 20260506030025 | 64 | 336 | 5.2 | 11.3 | 0.00 | 0.00 | 0.00 | 57 | 1017.4 |
| 20260506024522 | 65 | 317 | 4.3 | 9.6 | 0.00 | 0.00 | 0.00 | 56 | 1017.7 |
| 20260506023005 | 64 | 315 | 4.3 | 9.6 | 0.00 | 0.00 | 0.00 | 56 | 1018.0 |
| 20260506021502 | 63 | 293 | 2.6 | 7.8 | 0.00 | 0.00 | 0.00 | 58 | 1018.4 |
| 20260506020059 | 62 | 290 | 2.6 | 9.6 | 0.00 | 0.00 | 0.00 | 58 | 1018.7 |
| 20260506014556 | 61 | 288 | 2.6 | 7.8 | 0.00 | 0.00 | 0.00 | 59 | 1019.0 |
| 20260506013054 | 61 | 325 | 2.6 | 7.8 | 0.00 | 0.00 | 0.00 | 59 | 1019.3 |
| 20260506011553 | 61 | 310 | 3.5 | 8.7 | 0.00 | 0.00 | 0.00 | 59 | 1019.4 |
| 20260506010052 | 61 | 326 | 2.6 | 8.7 | 0.00 | 0.00 | 0.00 | 58 | 1019.5 |
| 20260506004550 | 61 | 327 | 2.6 | 10.4 | 0.00 | 0.00 | 0.00 | 58 | 1019.6 |
| 20260506003049 | 61 | 292 | 1.7 | 7.0 | 0.00 | 0.00 | 0.00 | 60 | 1019.8 |
| 20260506001549 | 60 | 360 | 4.3 | 8.7 | 0.00 | 0.00 | 0.00 | 61 | 1019.9 |
| 20260506000043 | 60 | 340 | 2.6 | 9.6 | 0.00 | 0.00 | 0.00 | 62 | 1020.0 |
| 20260505234548 | 60 | 307 | 0.9 | 7.0 | 0.00 | 0.00 | 0.00 | 63 | 1020.2 |
| 20260505233041 | 60 | 323 | 1.7 | 7.8 | 0.00 | 0.00 | 0.00 | 64 | 1020.3 |
| 20260505231550 | 59 | 322 | 1.7 | 6.1 | 0.00 | 0.00 | 0.00 | 64 | 1020.4 |
| 20260505230052 | 59 | 330 | 1.7 | 6.1 | 0.00 | 0.00 | 0.00 | 65 | 1020.4 |
| 20260505224537 | 58 | 332 | 0.9 | 6.1 | 0.00 | 0.00 | 0.00 | 65 | 1020.5 |
| 20260505223034 | 58 | 348 | 1.7 | 6.1 | 0.00 | 0.00 | 0.00 | 66 | 1020.5 |
| 20260505221535 | 58 | 278 | 1.7 | 3.5 | 0.00 | 0.00 | 0.00 | 67 | 1020.5 |
| 20260505220033 | 57 | 282 | 0.9 | 3.5 | 0.00 | 0.00 | 0.00 | 68 | 1020.6 |
| 20260505214533 | 57 | 309 | 1.7 | 5.2 | 0.00 | 0.00 | 0.00 | 68 | 1020.6 |
| 20260505213032 | 57 | 328 | 0.0 | 3.5 | 0.00 | 0.00 | 0.00 | 69 | 1020.4 |
| 20260505211531 | 57 | 331 | 0.9 | 4.3 | 0.00 | 0.00 | 0.00 | 69 | 1020.4 |
| 20260505210033 | 57 | 311 | 1.7 | 3.5 | 0.00 | 0.00 | 0.00 | 69 | 1020.5 |
| 20260505204530 | 57 | 306 | 0.9 | 4.3 | 0.00 | 0.00 | 0.00 | 69 | 1020.5 |
| 20260505203030 | 57 | 306 | 0.9 | 4.3 | 0.00 | 0.00 | 0.00 | 69 | 1020.5 |
| 20260505201528 | 57 | 324 | 0.9 | 3.5 | 0.00 | 0.00 | 0.00 | 69 | 1020.6 |
| 20260505200029 | 57 | 343 | 0.9 | 3.5 | 0.00 | 0.00 | 0.00 | 69 | 1020.6 |
| 20260505194528 | 57 | 307 | 0.9 | 3.5 | 0.00 | 0.00 | 0.00 | 70 | 1020.5 |
| 20260505193028 | 57 | 326 | 0.0 | 2.6 | 0.00 | 0.00 | 0.00 | 71 | 1020.7 |
| 20260505191525 | 56 | 303 | 0.0 | 2.6 | 0.00 | 0.00 | 0.00 | 72 | 1020.7 |
| 20260505190024 | 56 | 292 | 0.0 | 2.6 | 0.00 | 0.00 | 0.00 | 73 | 1020.8 |
| 20260505184524 | 56 | 325 | 0.0 | 2.6 | 0.00 | 0.00 | 0.00 | 73 | 1020.8 |
| 20260505183032 | 56 | 288 | 0.9 | 1.7 | 0.00 | 0.00 | 0.00 | 74 | 1020.8 |
| 20260505181522 | 56 | 306 | 0.9 | 1.7 | 0.00 | 0.00 | 0.00 | 75 | 1020.8 |
| 20260505180041 | 56 | 301 | 0.0 | 1.7 | 0.00 | 0.00 | 0.00 | 76 | 1020.8 |
| 20260505174522 | 56 | 327 | 0.0 | 1.7 | 0.00 | 0.00 | 0.00 | 76 | 1020.8 |
| 20260505173021 | 57 | 307 | 0.0 | 1.7 | 0.00 | 0.00 | 0.00 | 76 | 1020.9 |
| 20260505171520 | 57 | 286 | 0.0 | 1.7 | 0.00 | 0.00 | 0.00 | 76 | 1021.0 |
| 20260505170022 | 57 | 311 | 0.0 | 0.0 | 0.00 | 0.00 | 0.00 | 76 | 1021.1 |
| 20260505164518 | 57 | 311 | 0.0 | 1.7 | 0.00 | 0.00 | 0.00 | 76 | 1021.2 |
| 20260505163017 | 57 | 302 | 0.0 | 2.6 | 0.00 | 0.00 | 0.00 | 76 | 1021.3 |
| 20260505161616 | 57 | 314 | 0.9 | 2.6 | 0.00 | 0.00 | 0.00 | 76 | 1021.4 |